Flag for Canada Weather past 2 weeks in Markham, Ontario, Canada

Now
68 °F

Fog.


Feels Like: 68 °F
Forecast: 65 / 77 °F
Wind: 2 mph from South

Location: Toronto Buttonville

Current Time: Aug 21, 2014 at 8:45:46 AM

Latest Report: Aug 21, 2014 at 8:00 AM


Visibility: 2 mi

Pressure: 29.96 "Hg

Humidity: 94%

Dew point: 66 °F

Location of MarkhamLocation

Historic Weather in Markham — Graph

°F

Markham temperature yesterday

Maximum temperature yesterday: 73 °F (at 2:00 PM)
Minimum temperature yesterday: 61 °F (at 6:00 AM)
Average temperature yesterday: 67 °F

Past Weeks' High & Low Weather Summary

 TemperatureHumidityPressure
High79 °F (Aug 9, 3:00 PM)100% (Aug 17, 6:00 AM)30.19 "Hg (Aug 17, 6:00 AM)
Low50 °F (Aug 19, 4:00 AM)38% (Aug 15, 5:00 PM)29.67 "Hg (Aug 12, 5:00 PM)
Average65 °F73%29.96 "Hg
* Reported Aug 6 7:00 AM — Aug 21 7:00 AM, Markham, Weather by CustomWeather, © 2014

Note: Actual official high and low records may vary slightly from our data, if they occured in-between our weather recording intervals... More about our weather records

Advertising

Markham weather history for previous 24 hours

 ConditionsComfort  
Time TempWeatherWind HumidityBarometerVisibility
7:00 AM
Aug 21
66 °FFog.No wind100%29.94 "Hg1 mi
6:45 AMN/AFog.No windN/AN/A1 mi
6:00 AM66 °FFog.No wind94%29.93 "Hg3 mi
5:50 AMN/AFog.No windN/AN/A5 mi
5:00 AM66 °FLow clouds.No wind94%29.92 "Hg7 mi
4:00 AM66 °FLow clouds.No wind94%29.91 "Hg7 mi
3:00 AM64 °FLow clouds.No wind100%29.92 "Hg7 mi
2:00 AM66 °FLow clouds.5 mph94%29.92 "Hg7 mi
1:00 AM66 °FLow clouds.3 mph94%29.93 "Hg7 mi
12:00 AM66 °FLow clouds.7 mph100%29.93 "Hg8 mi
11:00 PM
Aug 20
66 °FSprinkles. Low clouds.5 mph100%29.91 "Hg8 mi
10:45 PMN/ALow clouds.7 mphN/AN/A8 mi
10:00 PM66 °FSprinkles. Mostly cloudy.7 mph94%29.91 "Hg10 mi
9:53 PMN/ASprinkles.6 mphN/AN/A10 mi
9:00 PM66 °FSprinkles. Overcast.5 mph94%29.91 "Hg10 mi
8:00 PM68 °FOvercast.9 mph83%29.91 "Hg12 mi
7:00 PM70 °FPartly sunny.9 mph78%29.91 "Hg12 mi
6:00 PM72 °FBroken clouds.9 mph78%29.91 "Hg15 mi
5:00 PM73 °FPartly sunny.10 mph78%29.91 "Hg15 mi
4:00 PM73 °FPartly sunny.12 mph74%29.89 "Hg15 mi
3:00 PM73 °FBroken clouds.7 mph78%29.90 "Hg15 mi
2:00 PM73 °FMostly cloudy.7 mph78%29.90 "Hg15 mi
1:00 PM72 °FCloudy.6 mph78%29.90 "Hg14 mi
12:00 PM72 °FPartly sunny.5 mph83%29.90 "Hg13 mi
11:00 AM68 °FSprinkles. Mostly cloudy.5 mph83%29.91 "Hg11 mi
10:00 AM64 °FMore clouds than sun.2 mph88%29.90 "Hg12 mi
9:00 AM63 °FOvercast.2 mph88%29.89 "Hg14 mi
8:46 AMN/AScattered showers.2 mphN/AN/A14 mi
8:00 AM63 °FOvercast.2 mph88%29.88 "Hg15 mi
Weather by CustomWeather, © 2014

See weather overviewHow to use our weather pages